Date,TemperatureHighF,TemperatureAvgF,TemperatureLowF,DewpointHighF,DewpointAvgF,DewpointLowF,HumidityHigh,HumidityAvg,HumidityLow,PressureMaxIn,PressureMinIn,WindSpeedMaxMPH,WindSpeedAvgMPH,GustSpeedMaxMPH,PrecipitationSumIn
2013-1-1,39.0,20.4,5.4,17.4,9.1,-0.4,80,64,40,30.18,30.09,8,1,11,0.00
2013-1-2,38.1,25.8,17.4,15.3,8.8,2.8,64,49,34,30.31,30.16,29,10,38,0.00
2013-1-3,42.6,23.1,4.8,14.4,4.4,-4.4,70,47,25,30.32,30.21,7,1,9,0.00
2013-1-4,52.2,28.3,12.6,20.7,9.9,0.7,65,48,24,30.24,30.08,12,2,18,0.00
2013-1-5,52.2,30.5,13.3,17.1,9.8,3.9,68,44,22,30.31,30.10,19,3,27,0.00
2013-1-6,58.3,28.5,9.7,16.2,8.4,-0.8,68,48,14,30.30,30.01,6,1,8,0.00
2013-1-7,57.7,35.2,22.6,19.4,14.0,9.1,68,45,17,30.09,29.88,10,1,15,0.00
2013-1-8,58.5,40.3,23.7,23.9,18.0,13.5,70,44,25,30.26,29.87,17,4,25,0.00
2013-1-9,60.6,35.2,21.6,25.3,17.4,12.6,72,52,23,30.33,30.07,10,2,11,0.00
2013-1-10,42.4,29.2,19.2,24.8,18.4,11.8,76,65,49,30.07,29.60,11,1,11,0.00
2013-1-11,34.5,23.5,7.3,27.1,13.6,2.1,81,67,36,29.89,29.46,27,6,36,0.00
2013-1-12,27.3,10.4,0.7,12.0,1.5,-4.7,84,69,43,30.07,29.88,9,1,13,0.00
2013-1-13,21.7,8.1,-2.7,6.1,-0.5,-8.9,78,69,48,30.15,30.04,7,1,8,0.00
2013-1-14,27.1,6.4,-2.9,5.0,-4.4,-10.3,78,63,32,31.53,30.08,10,2,12,0.00
2013-1-15,35.6,18.6,-3.8,19.2,4.8,-11.2,78,56,39,30.17,26.76,19,3,31,0.00
2013-1-16,58.6,40.4,27.3,24.3,18.6,12.7,57,43,23,30.40,30.15,25,9,32,0.00
2013-1-17,56.1,33.1,18.7,22.3,14.6,8.6,67,49,26,30.46,30.25,10,2,11,0.00
2013-1-18,65.5,42.3,21.4,12.7,7.6,4.1,59,29,11,30.25,30.10,17,6,32,0.00
2013-1-19,59.5,42.3,25.7,14.5,9.2,5.2,46,27,15,30.29,30.13,16,3,26,0.00
2013-1-20,56.1,33.9,15.8,14.5,9.8,5.2,69,41,14,30.31,30.18,18,4,32,0.00
2013-1-21,57.2,33.5,13.5,22.3,10.9,4.1,77,46,20,30.27,30.10,12,2,15,0.00
2013-1-22,60.4,39.9,18.7,18.3,9.7,3.6,62,33,13,30.22,30.08,11,2,13,0.00
2013-1-23,68.5,43.5,28.0,18.7,7.6,-3.1,40,25,10,32.42,30.16,15,2,19,0.00
2013-1-24,65.8,44.4,22.3,28.4,16.7,7.2,55,36,13,30.21,30.04,24,5,35,0.00
2013-1-25,60.4,42.5,25.3,31.6,23.5,16.9,75,49,30,30.24,30.12,13,2,19,0.00
2013-1-26,55.9,40.5,26.2,30.6,24.9,18.5,79,56,37,30.13,29.87,8,1,9,0.00
2013-1-27,59.7,43.5,29.1,36.3,28.3,21.9,83,57,35,29.88,29.80,12,2,19,0.00
2013-1-28,57.6,33.9,25.0,33.1,22.8,15.4,83,66,32,29.85,29.69,23,5,36,0.00
2013-1-29,36.7,24.9,13.8,21.0,12.9,5.0,84,63,34,30.01,29.79,28,6,40,0.08
2013-1-30,40.8,26.2,10.8,18.5,11.7,1.6,78,55,39,30.00,29.88,31,6,48,0.00
2013-1-31,36.1,32.5,22.8,19.2,17.8,14.9,77,55,47,30.13,29.94,13,5,25,0.00
2013-2-8,43.3,30.7,25.5,13.5,9.9,7.3,52,42,29,29.84,29.81,5,2,9,0.00
2013-2-9,51.6,33.0,25.0,25.2,18.2,10.0,69,56,33,29.82,29.67,15,8,25,0.00
2013-2-10,37.6,29.4,20.8,17.8,12.4,7.0,66,50,30,30.10,29.71,24,12,38,0.00
2013-2-11,39.9,23.4,11.5,19.6,9.8,-0.2,82,58,40,30.13,30.03,9,1,13,0.00
2013-2-12,49.8,27.5,8.4,10.4,3.0,-3.6,62,40,14,30.10,30.04,22,3,27,0.00
2013-2-13,54.3,36.4,19.2,17.8,12.5,4.5,57,39,21,30.10,28.15,22,6,38,0.00
2013-2-14,34.5,29.1,23.2,22.3,15.9,10.9,75,59,40,30.30,30.06,24,6,44,0.00
2013-2-15,42.1,33.8,21.9,25.0,13.9,7.3,80,46,32,30.31,30.25,37,12,53,0.00
2013-2-16,60.6,37.7,15.8,23.2,14.1,4.6,77,44,17,30.25,30.03,20,3,31,0.00
2013-2-17,61.5,39.0,22.3,19.9,9.7,2.8,68,35,10,30.04,29.69,28,6,39,0.00
2013-2-18,46.8,31.8,17.8,20.1,10.1,0.5,68,44,17,30.15,29.88,28,9,43,0.00
2013-2-19,42.1,26.0,11.3,17.6,10.1,1.8,71,53,32,30.15,29.92,8,2,12,0.00
2013-2-20,40.8,25.2,16.2,23.4,15.3,7.9,83,68,40,29.92,29.77,13,4,19,0.00
2013-2-21,36.1,23.9,15.1,23.2,16.5,10.2,85,74,56,29.96,29.83,17,4,28,0.11
2013-2-22,39.7,23.7,10.8,24.4,15.1,6.4,87,72,45,30.02,29.90,57,2,57,0.00
2013-2-23,43.9,28.6,12.6,25.3,15.4,7.0,84,61,35,29.92,29.74,8,2,12,0.00
2013-2-24,30.0,26.5,13.6,25.3,20.6,7.3,87,78,70,30.16,29.83,19,6,33,0.00
2013-2-25,37.0,22.4,5.7,21.2,12.4,-16.1,84,67,23,30.15,26.73,24,2,35,0.10
2013-2-26,39.7,28.1,16.5,23.2,17.6,10.9,81,65,44,30.13,29.82,27,10,38,0.00
2013-2-27,47.3,31.4,17.8,16.3,12.9,8.8,71,49,24,30.22,27.38,25,8,31,0.00
2013-2-28,50.7,33.2,14.5,20.5,11.2,5.5,75,44,21,30.23,30.14,24,5,30,0.00
2013-3-1,50.5,38.1,28.0,22.6,18.3,13.8,62,45,31,30.28,25.34,14,6,24,0.00
2013-3-2,63.7,48.2,36.3,28.0,25.9,23.7,61,44,25,30.17,30.05,10,2,16,0.00
2013-3-3,65.3,48.2,32.5,30.7,25.3,22.1,67,45,22,30.05,29.73,22,5,31,0.00
2013-3-4,44.2,29.8,20.1,26.8,16.8,7.2,81,59,38,30.20,29.74,34,10,46,0.06
2013-3-5,42.8,28.7,10.0,19.6,13.4,3.6,77,56,31,30.26,26.24,13,3,20,0.00
2013-3-6,57.6,36.8,15.8,27.9,19.0,9.5,79,53,25,30.13,29.89,12,3,15,0.00
2013-3-7,66.9,45.8,26.8,31.3,23.2,17.6,72,46,19,30.02,29.89,15,3,23,0.00
2013-3-8,52.5,37.8,28.0,32.5,26.6,20.7,78,65,46,30.01,29.75,10,2,12,0.00
2013-3-9,38.7,33.5,27.0,29.1,21.4,11.8,81,62,43,30.87,25.27,31,12,43,0.00
2013-3-10,49.8,36.9,23.2,18.3,14.9,9.9,69,43,23,30.11,30.02,38,14,47,0.00
2013-3-11,60.4,41.4,27.1,28.8,21.2,12.6,87,50,21,30.17,25.45,29,7,41,0.00
2013-3-12,39.7,31.5,24.1,29.3,24.8,19.9,88,77,63,30.29,30.16,11,2,16,0.35
2013-3-13,62.4,44.4,23.7,38.1,29.0,19.9,89,59,36,30.26,29.19,11,2,13,0.00
2013-3-14,48.9,44.2,41.2,29.1,28.2,26.2,61,54,42,30.23,30.21,9,2,13,0.00
2013-3-15,75.9,63.7,47.8,27.5,25.5,21.9,45,25,15,30.22,0.00,16,6,36,0.00
2013-3-16,55.0,47.2,36.9,36.9,29.9,25.0,71,52,35,0.00,0.00,17,4,26,0.00
2013-3-17,61.9,40.3,26.2,34.9,21.4,1.2,80,51,23,0.00,0.00,33,9,45,0.00
2013-3-18,53.8,40.6,23.9,17.8,8.7,1.2,42,28,15,0.00,0.00,33,10,53,0.00
2013-3-19,57.7,42.0,25.3,16.3,6.1,-7.5,63,27,7,0.00,0.00,34,9,50,0.00
2013-3-20,48.6,33.3,14.7,21.2,15.1,7.9,75,50,30,0.00,0.00,7,1,7,0.00
2013-3-21,53.6,38.9,28.6,37.4,17.9,4.6,73,45,20,0.00,0.00,27,6,39,0.00
2013-3-22,46.9,33.4,22.5,28.4,16.4,5.2,83,53,29,29.95,0.00,23,5,30,0.04
2013-3-23,28.0,21.8,12.4,20.5,13.8,5.9,83,72,52,30.14,29.93,20,7,30,0.04
2013-3-24,39.9,23.1,8.4,20.7,8.9,2.3,80,58,31,30.18,30.04,25,6,34,0.04
2013-3-25,38.8,25.9,13.1,19.2,13.0,7.2,84,60,40,30.22,30.15,12,3,21,0.00
2013-3-26,53.1,32.7,14.0,29.5,15.8,6.1,74,53,27,30.17,29.95,11,2,13,0.00
2013-3-27,59.4,42.5,29.1,35.1,28.8,23.9,83,62,37,30.12,28.75,17,3,18,0.00
2013-3-28,71.4,48.7,28.8,36.9,28.0,22.5,82,51,19,30.14,30.05,12,2,18,0.00
2013-3-29,72.7,50.7,34.7,37.4,29.1,24.8,69,47,19,30.13,30.06,24,4,31,0.00
2013-3-30,70.9,47.4,32.2,40.1,31.6,24.6,89,60,19,30.21,30.04,21,4,32,0.14
2013-3-31,73.4,49.6,24.1,39.6,27.9,18.1,90,52,16,30.20,27.53,13,3,20,0.00
2013-4-1,54.7,41.1,28.4,31.1,26.4,20.8,74,57,39,30.16,30.05,12,4,17,0.00
2013-4-2,45.7,39.4,35.2,36.5,31.6,27.3,84,74,63,30.13,30.08,9,2,12,0.00
2013-4-3,65.3,49.0,34.9,38.5,33.4,28.6,86,59,32,30.14,30.03,13,4,20,0.00
2013-4-4,75.7,56.3,34.5,37.9,31.0,26.2,76,43,20,30.16,30.02,12,4,17,0.00
2013-4-5,74.5,54.2,43.7,37.6,30.6,26.8,58,43,19,30.02,29.77,33,4,52,0.00
2013-4-6,69.8,56.2,41.9,28.9,24.7,20.4,49,32,17,29.97,29.89,25,6,38,0.00
2013-4-7,70.3,53.9,37.9,41.4,32.6,25.2,83,49,20,29.93,29.74,23,4,32,0.02
2013-4-8,68.2,43.6,23.0,38.1,28.6,15.4,80,60,25,32.12,29.56,31,10,49,0.00
2013-4-9,24.4,18.8,12.9,16.5,10.2,3.6,78,69,59,30.17,29.88,31,12,44,0.00
2013-4-10,42.6,22.0,8.2,21.6,12.6,0.9,80,68,39,30.14,29.91,22,4,32,0.12
2013-4-11,57.4,39.3,17.6,32.9,23.4,12.4,83,57,30,29.94,29.76,31,9,41,0.00
2013-4-12,61.3,43.8,32.5,34.7,29.7,26.4,86,60,33,30.01,29.91,22,4,38,0.00
2013-4-13,59.7,47.2,29.8,37.8,31.6,24.6,87,58,34,29.99,29.53,31,4,44,0.10
2013-4-14,50.0,41.4,33.8,34.9,14.4,7.0,81,36,19,29.79,29.59,27,10,50,0.00
2013-4-15,34.5,27.6,24.1,24.8,21.6,14.2,88,79,45,30.03,29.77,15,3,61,0.03
2013-4-16,31.8,26.9,23.2,27.7,23.8,19.6,90,88,84,30.03,29.89,0,0,0,0.00
2013-4-17,34.5,27.4,19.6,29.1,22.7,12.2,91,83,71,30.14,29.96,16,3,28,0.04
2013-4-18,37.8,26.3,15.4,21.6,14.7,7.9,75,62,46,30.12,30.07,29,12,89,0.24
2013-4-19,55.0,38.1,18.1,32.9,23.3,11.3,75,57,37,30.11,29.97,12,3,18,0.00
2013-4-20,63.3,45.5,29.8,38.1,31.5,24.1,81,61,32,30.03,29.93,24,3,30,0.00
2013-4-21,66.6,50.6,34.2,35.8,31.0,26.4,79,52,26,30.08,30.00,15,3,19,0.00
2013-4-22,43.7,33.2,23.7,35.8,26.9,20.1,86,78,55,32.27,28.72,27,6,49,0.02
2013-4-23,38.3,28.4,18.7,26.6,20.1,14.2,86,72,54,30.25,29.12,10,1,15,0.21
2013-4-24,59.5,41.3,22.3,30.4,20.9,14.9,82,51,20,30.19,30.10,26,4,40,0.00
2013-4-25,67.6,51.7,27.1,30.7,24.3,17.4,76,40,16,30.17,29.95,12,3,15,0.00
2013-4-26,77.0,56.7,36.3,28.4,23.2,16.9,61,33,12,30.22,30.03,12,4,18,0.00
2013-4-27,81.5,57.9,37.6,29.7,23.6,18.0,60,35,10,30.22,30.07,20,6,30,0.00